Regional Weather Roundup
Issued by NWS

Home | Current Version | Previous Version | Text Only | Print | Product List | Glossary Off
Versions: 1 2 3 4 5 6 7 8 9 10 11 12 13 14 15 16 17 18 19 20 21 22 23 24 25 26 27

000
ASUS45 KCYS 260910
RWRWY

WYOMING REGIONAL WEATHER ROUNDUP
NATIONAL WEATHER SERVICE CHEYENNE WY
300 AM MDT FRI AUG 26 2016

NOTE:  "FAIR" INDICATES FEW OR NO CLOUDS BELOW 12,000 FEET
WITH NO SIGNIFICANT WEATHER AND/OR OBSTRUCTIONS TO VISIBILITY.

WYZ001-261000-
YELLOWSTONE NATIONAL PARK

CITY           SKY/WX    TMP DP  RH WIND       PRES   REMARKS
LK YELLOWSTONE   N/A     44  36  73 CALM      30.29S
W YELLOWSTONE  NOT AVBL

$$
WYZ002>013-054>058-071-098>099-261000-
NORTHERN WYOMING

CITY           SKY/WX    TMP DP  RH WIND       PRES   REMARKS
JACKSON        MOCLDY    39  34  81 N6        30.21R WCI  35
CODY           FAIR      52  43  71 S3        30.16F
GREYBULL       MOCLDY    57  45  64 CALM      30.11F
WORLAND        FAIR      48  45  89 SE5       30.13F
SHERIDAN       FAIR      49  43  80 S3        30.11F
BUFFALO        FAIR      52  42  69 S6        30.14F
GILLETTE       FAIR      55  47  74 S13       30.14F
HULETT         FAIR      52  41  66 CALM      30.18S
NEWCASTLE      RAIN      52  50  93 W7        30.23R

$$
WYZ014>020-022>026-101>103-261000-
CENTRAL WYOMING

CITY           SKY/WX    TMP DP  RH WIND       PRES   REMARKS
BIG PINEY      FAIR      35  33  92 NE6       30.24F WCI  30
PINEDALE       FAIR      32  30  93 NW6       30.25F WCI  26
DUBOIS         NOT AVBL
LANDER         FAIR      48  43  82 CALM      30.19R
RIVERTON       FAIR      47  46  97 S7        30.19R
CASPER         FAIR      50  47  89 SE6       30.15F
DOUGLAS        MOCLDY    49  47  93 S7        30.20F

$$
WYZ021-027>030-104>119-261000-
SOUTHERN WYOMING

CITY           SKY/WX    TMP DP  RH WIND       PRES   REMARKS
EVANSTON       FAIR      48  31  51 E9        30.21F
FORT BRIDGER   FAIR      43  32  65 NW5       30.25S
ROCK SPRINGS   FAIR      49  38  65 E8        30.23S
DIXON          FAIR      48  35  62 E7        30.26F
RAWLINS        FAIR      44  36  73 N5        30.25F
LARAMIE        CLOUDY    50  41  71 S8        30.23F
CHEYENNE       MOCLDY    52  46  80 W3        30.20F
TORRINGTON     CLOUDY    55  47  74 SE8       30.15S
PINE BLUFFS    FAIR      50  43  76 CALM      30.18F

$$




USA.gov is the U.S. government's official web portal to all federal, state and local government web resources and services.